Location: Unspecified
(0.0000°N, 0.0000°E)
Time: 06:35:57
(UTC+00:00)

Vanguard 1 Rocket - Pass Details

Date: 19 November 2019
Orbit: 650 x 4226 km, 34.3° (Epoch: 10 December)

Event Time Altitude Azimuth Distance (km) Brightness Sun altitude
Rises 09:03:43 0° 327° (NNW) 4,162 10.4 45.9°
Reaches altitude 10° 09:06:17 10° 336° (NNW) 3,519 10.2 46.5°
Maximum altitude 09:15:04 40° 44° (NE) 2,900 10.6 48.4°
Drops below altitude 10° 09:31:06 10° 106° (ESE) 6,333 12.5 51.8°
Sets 09:37:39 0° 113° (ESE) 7,847 12.7 53.2°
